Tracking 28908 objects as of 21-May-2024
HD Live streaming from Space Station
objects crossing your sky now

STARLINK-5038

Track STARLINK-5038 now!
10-day predictions
STARLINK-5038 is classified as:


NORAD ID: 56472
Int'l Code: 2023-064AA
Perigee: 576.7 km
Apogee: 581.6 km
Inclination: 70.0 °
Period: 96.1 minutes
Semi major axis: 6950 km
RCS: Unknown
Launch date: May 10, 2023
Source: United States (US)
Launch site: AIR FORCE WESTERN TEST RANGE (AFWTR)
Your satellite tracking list
Your tracking list is empty




NASA's NSSDC Master Catalog

Two Line Element Set (TLE):
1 56472U 23064AA  24141.88236650  .00014701  00000-0  12368-2 0  9994
2 56472  70.0012 343.1241 0003545 270.8991  89.1762 14.98343097 57561
Source of the keplerian elements: AFSPC